DECAYED

OBJECT B, 53300 (Decayed)

Orbit data source: Space-Track

You're viewing an Uncataloged Satellite

Recently launched and/or uncataloged satellites may have evolving metadata. Metadata may include but not limited to: Owner, Maufacturer, Bus, Motor, and Mission.

OBJECT B, 53300 was a satellite owned by CAS (CN) in LEO that was launched on Wed, 27 Jul 2022 UTC via a LIJIAN-1 launch vehicle from the Jiuquan Satellite Launch Center, China (JSC). Unknown objects in Earth's orbit typically refer to objects detected orbiting the Earth but have not yet been identified or cataloged. These objects could be anything from previously untracked satellites, spent rocket stages, debris from satellite collisions, or even natural meteoroids temporarily captured by Earth's gravity. This object's orbit decayed before it could be identified.

Not visible in the next 10 days
Identifier
53300, 2022-087B
Orbit
Decayed
Country
Flag of CNCN / PRC
Related business
Manufacturer
SECM
Mission
Decayed Civil Technology
Bus & Motor
Unknown
Mass
94 kg wet, 94 kg dry
Launch date (UTC)
2022-07-27 (4 years ago)
Launch vehicle
LIJIAN-1
Launch site
Jiuquan Satellite Launch Center, China (JSC)
Object type
Unknown
Shape & HBR
Box, 0.3 m
Radar Cross Section
0.375 m², Medium (>0.1 m² and < 1m²)

Expand to show TLE details & history
Last TLE update: 1 year ago

TLE from 1 year ago
0 OBJECT B
1 53300U 22087B   25104.32862511  .06252011  24491-5  67966-3 0  9999
2 53300  97.2632 196.6640 0012250 264.5273  95.4628 16.37190370152541
Epoch: 2025-04-14T07:53Z
TLE epoch observation values (Epoch: 2025-04-14T07:53:13.209Z)
Latitude
-0.00003°
Longitude
-124.38619°
Altitude
177.313 km
Speed
7.799 km/s
True Right ascension
13h 06m 39s
True Declination
0° 00' 00"
Sunlit
Object was in full shadow at epoch
Visualization orbit readout
Latitude
Unknown
Longitude
Unknown
Altitude
Unknown
Speed
Unknown
Apparent Right ascension
Unknown
Apparent Declination
Unknown
Sunlit
N/A
Visualization observer readout
Local Sidereal Time
21:25:15
Azimuth
Unknown
Elevation
Unknown
Doppler factor
Unknown
Orbital elements
Apogee altitude
178.114 km
Perigee altitude
162.071 km
Semi-major axis
6,548.229 km
Eccentricity
0.00123
Inclination
97.2632°
RAAN
196.664°
Arg. of periapsis
264.5273°
True anomaly
95.60252°
Mean anomaly
95.4628°
Eccentric anomaly
95.53266°
Mean motion
4.09598 °/min
Orbital period
87.89 mins
BSTAR
0.00067966
Loading maneuver chart data...
Computing Atmospheric mass density...
Loading historical data...
Loading historical data...
Loading historical data...
Loading historical data...
Loading historical data...
Loading historical data...
Loading historical data...

Documentation

Showing up to 5 results
|